Location: Bun Machan
(52.1403°N, 7.3744°W)
Time: 19:16:41
(UTC+00:00)

USA 267 - Pass Details

Date: 14 July 2020
Orbit: 1102 x 1106 km, 123.0° (Epoch: 09 August)

Event Time Altitude Azimuth Distance (km) Brightness Sun altitude
Exits shadow 00:32:10 21° 156° (SSE) 2,269 4.4 -16.2°
Maximum altitude 00:36:26 48° 222° (SW) 1,412 3.5 -16.2°
Drops below altitude 10° 00:42:44 10° 295° (WNW) 2,966 5.8 -16.2°
Sets 00:45:21 0° 301° (WNW) 3,927 6.6 -16.2°
